This demonstration page uses our WeatherBlox Daily Observations layout. Learn more.

40.92945, -100.16068

Hourly Observations for December 8, 2017

Temp ( °F °C ) Dew Point ( °F °C ) Humidity (%) Winds ( mph kmh ) Pressure ( in mb ) Visibility ( mi km ) Precip ( " mm )
12:15 am 00:15 Cloudy 27 -2.7 18 -8 67 67 W 3 6 30.18 1022 10 16.09344 0 0
12:35 am 00:35 Cloudy 28 -2.3 18 -7.8 66 66 WNW 6 9 30.18 1022 10 16.09344 0 0
12:55 am 00:55 Cloudy 30 -1.3 19 -7.1 65 65 NW 6 9 30.15 1021 10 16.09344 0 0
1:15 am 01:15 Cloudy 30 -1 20 -6.9 65 65 WNW 6 9 30.15 1021 10 16.09344 0 0
1:35 am 01:35 Cloudy 31 -0.6 20 -6.5 65 65 WNW 6 9 30.15 1021 10 16.09344 0 0
1:55 am 01:55 Cloudy 31 -0.8 20 -6.5 66 66 WNW 3 6 30.15 1021 10 16.09344 0 0
2:15 am 02:15 Cloudy 31 -0.5 21 -6.1 66 66 WNW 6 9 30.12 1020 10 16.09344 0 0
2:35 am 02:35 Cloudy 34 1.1 23 -4.8 65 65 WNW 12 19 30.09 1019 10 16.09344 0 0
2:55 am 02:55 Cloudy 37 2.9 24 -4.5 59 59 NW 14 22 30.12 1020 10 16.09344 0 0
3:15 am 03:15 Cloudy 38 3.2 24 -4.5 57 57 NW 12 19 30.12 1020 10 16.09344 0 0
3:35 am 03:35 Cloudy 38 3.2 24 -4.5 57 57 WNW 10 17 30.09 1019 10 16.09344 0 0
3:55 am 03:55 Cloudy 38 3.3 24 -4.7 56 56 NW 15 24 30.09 1019 10 16.09344 0 0
4:15 am 04:15 Cloudy 37 3 23 -4.8 57 57 NW 9 15 30.09 1019 10 16.09344 0 0
4:35 am 04:35 Mostly Cloudy 37 2.8 24 -4.7 58 58 NW 12 19 30.09 1019 10 16.09344 0 0
4:55 am 04:55 Partly Cloudy 39 3.7 24 -4.7 55 55 NW 13 20 30.06 1018 10 16.09344 0 0
5:15 am 05:15 Partly Cloudy 38 3.3 23 -4.8 56 56 NW 12 19 30.09 1019 10 16.09344 0 0
5:35 am 05:35 Cloudy 39 3.8 23 -4.8 54 54 NNW 15 24 30.06 1018 10 16.09344 0 0
5:55 am 05:55 Cloudy 39 3.9 23 -4.8 53 53 NNW 15 24 30.06 1018 10 16.09344 0 0
6:15 am 06:15 Mostly Cloudy 38 3.3 23 -5 55 55 N 23 37 30.12 1020 10 16.09344 0 0
6:35 am 06:35 Clear 37 2.7 23 -5 57 57 N 18 30 30.12 1020 10 16.09344 0 0
6:55 am 06:55 Clear 35 1.5 23 -5 62 62 N 12 19 30.12 1020 10 16.09344 0 0
7:15 am 07:15 Clear 32 0.2 23 -5.1 68 68 NNW 10 17 30.15 1021 10 16.09344 0 0
7:35 am 07:35 Clear 31 -0.6 22 -5.4 70 70 NNW 9 15 30.15 1021 10 16.09344 0 0
7:55 am 07:55 Sunny 32 0.1 23 -4.8 70 70 NNW 9 15 30.15 1021 10 16.09344 0 0
8:15 am 08:15 Sunny 30 -1.1 22 -5.5 72 72 NW 5 7 30.15 1021 10 16.09344 0 0
8:35 am 08:35 Partly Cloudy 33 0.5 24 -4.5 69 69 N 16 26 30.15 1021 10 16.09344 0 0
8:55 am 08:55 Sunny 34 1 24 -4.5 67 67 NNW 14 22 30.18 1022 10 16.09344 0 0
9:15 am 09:15 Sunny 35 1.5 24 -4.4 65 65 NNW 23 37 30.15 1021 10 16.09344 0 0
9:35 am 09:35 Sunny 35 1.8 24 -4.4 64 64 NNW 18 30 30.15 1021 10 16.09344 0 0
9:55 am 09:55 Sunny 36 2.2 24 -4.2 63 63 N 18 30 30.15 1021 10 16.09344 0 0
10:15 am 10:15 Sunny 36 2.4 24 -4.7 60 60 NNW 26 43 30.15 1021 10 16.09344 0 0
10:35 am 10:35 Sunny 37 2.6 24 -4.6 59 59 N 20 31 30.15 1021 10 16.09344 0 0
10:55 am 10:55 Sunny 37 2.8 23 -4.8 58 58 NNW 21 33 30.18 1022 10 16.09344 0 0
11:15 am 11:15 Sunny 38 3.3 23 -5 55 55 N 20 31 30.15 1021 10 16.09344 0 0
11:35 am 11:35 Sunny 39 3.7 23 -5 53 53 NNW 23 37 30.15 1021 10 16.09344 0 0
11:55 am 11:55 Sunny 39 4.1 23 -5.1 52 52 NNW 22 35 30.15 1021 10 16.09344 0 0
12:15 pm 12:15 Sunny 41 4.8 23 -5.2 49 49 NNW 22 35 30.12 1020 10 16.09344 0 0
12:35 pm 12:35 Sunny 42 5.5 22 -5.6 45 45 N 23 37 30.12 1020 10 16.09344 0 0
12:55 pm 12:55 Sunny 42 5.6 22 -5.6 45 45 N 20 31 30.09 1019 10 16.09344 0 0
1:15 pm 13:15 Sunny 43 6.3 22 -5.5 43 43 NNW 18 30 30.09 1019 10 16.09344 0 0
1:35 pm 13:35 Sunny 43 6.2 22 -5.6 43 43 NNW 18 30 30.09 1019 10 16.09344 0 0
1:55 pm 13:55 Sunny 44 6.5 22 -5.7 42 42 NNW 22 35 30.09 1019 10 16.09344 0 0
2:15 pm 14:15 Sunny 44 6.6 22 -5.6 42 42 NNW 20 31 30.09 1019 10 16.09344 0 0
2:35 pm 14:35 Sunny 44 6.8 21 -6 40 40 NNW 24 39 30.09 1019 10 16.09344 0 0
2:55 pm 14:55 Sunny 44 6.7 20 -6.4 39 39 NW 22 35 30.09 1019 10 16.09344 0 0
3:15 pm 15:15 Sunny 45 7.1 20 -6.7 37 37 NNW 22 35 30.06 1018 10 16.09344 0 0
3:35 pm 15:35 Sunny 45 7.1 19 -7.4 35 35 NNW 23 37 30.06 1018 10 16.09344 0 0
3:55 pm 15:55 Sunny 45 7.1 19 -7.4 35 35 NNW 21 33 30.06 1018 10 16.09344 0 0
4:15 pm 16:15 Sunny 44 6.4 19 -7.3 37 37 NNW 22 35 30.09 1019 10 16.09344 0 0
4:35 pm 16:35 Sunny 42 5.7 19 -7.1 40 40 NNW 15 24 30.09 1019 10 16.09344 0 0
4:55 pm 16:55 Sunny 41 5.1 19 -7 42 42 NW 13 20 30.09 1019 10 16.09344 0 0
5:15 pm 17:15 Clear 40 4.6 19 -7 43 43 NW 14 22 30.09 1019 10 16.09344 0 0
5:35 pm 17:35 Clear 40 4.4 20 -6.8 44 44 NW 14 22 30.09 1019 10 16.09344 0 0
5:55 pm 17:55 Mostly Cloudy 40 4.4 20 -6.7 45 45 NW 9 15 30.09 1019 10 16.09344 0 0
6:15 pm 18:15 Mostly Cloudy 39 3.9 20 -6.5 47 47 NW 9 15 30.12 1020 10 16.09344 0 0
6:35 pm 18:35 Partly Cloudy 38 3.1 20 -6.5 50 50 NW 12 19 30.12 1020 10 16.09344 0 0
6:55 pm 18:55 Partly Cloudy 38 3.2 21 -6.3 50 50 NW 10 17 30.12 1020 10 16.09344 0 0
7:15 pm 19:15 Partly Cloudy 40 4.3 21 -6 47 47 NW 13 20 30.09 1019 10 16.09344 0 0
7:35 pm 19:35 Partly Cloudy 38 3.6 21 -6 50 50 NW 9 15 30.12 1020 10 16.09344 0 0
7:55 pm 19:55 Clear 36 2.4 21 -6.1 54 54 WNW 9 15 30.12 1020 10 16.09344 0 0
8:15 pm 20:15 Clear 35 1.4 20 -6.5 56 56 WNW 9 15 30.12 1020 10 16.09344 0 0
8:35 pm 20:35 Clear 37 2.6 21 -6 53 53 WNW 14 22 30.12 1020 10 16.09344 0 0
8:55 pm 20:55 Clear 37 2.5 21 -6 54 54 NW 14 22 30.12 1020 10 16.09344 0 0
9:15 pm 21:15 Clear 36 2.2 21 -5.9 55 55 NW 10 17 30.12 1020 10 16.09344 0 0
9:35 pm 21:35 Clear 34 1.2 21 -6 59 59 NW 10 17 30.12 1020 10 16.09344 0 0
9:55 pm 21:55 Clear 34 1.2 21 -6 59 59 NW 12 19 30.12 1020 10 16.09344 0 0
10:15 pm 22:15 Clear 34 1 21 -6 60 60 NW 13 20 30.12 1020 10 16.09344 0 0
10:35 pm 22:35 Clear 33 0.6 22 -5.8 63 63 WNW 10 17 30.15 1021 10 16.09344 0 0
10:55 pm 22:55 Clear 30 -1 21 -6.3 68 68 WNW 8 13 30.18 1022 10 16.09344 0 0
11:15 pm 23:15 Clear 29 -1.6 20 -6.5 70 70 WNW 8 13 30.18 1022 10 16.09344 0 0
11:35 pm 23:35 Clear 29 -1.7 20 -6.4 71 71 WNW 10 17 30.18 1022 10 16.09344 0 0
11:55 pm 23:55 Clear 29 -1.6 21 -6.2 71 71 WNW 10 17 30.18 1022 10 16.09344 0 0

Powered by AerisWeather